Tracking 28794 objects as of 21-Apr-2024
HD Live streaming from Space Station
objects crossing your sky now

COSMOS 2564 (GLONASS)

Track COSMOS 2564 (GLONASS) now!
COSMOS 2564 (GLONASS) is classified as:


NORAD ID: 54377
Int'l Code: 2022-161A
Perigee: 19,113.2 km
Apogee: 19,160.9 km
Inclination: 64.7 °
Period: 675.7 minutes
Semi major axis: 25508 km
RCS: Unknown
Launch date: November 28, 2022
Source: Commonwealth of Independent States (former USSR) (CIS)
Launch site: PLESETSK MISSILE AND SPACE COMPLEX (PKMTR)
SV: 761
Your satellite tracking list
Your tracking list is empty




NASA's NSSDC Master Catalog

Two Line Element Set (TLE):
1 54377U 22161A   24112.29259887 -.00000015  00000-0  00000-0 0  9995
2 54377  64.7427 218.8759 0009355 216.1837 143.7552  2.13102110 10861
Source of the keplerian elements: AFSPC